Regional Weather Roundup
Issued by NWS Goodland, KS

Home | Current Version | Previous Version | Graphics & Text | Print | Product List | Glossary On
Versions: 1 2 3 4 5 6 7 8 9 10 11 12 13 14 15 16 17 18 19 20 21 22 23 24 25 26 27 28 29 30 31 32 33 34 35 36 37 38 39 40 41 42 43 44 45 46 47 48 49 50
000
ASUS43 KGLD 291159
RWRGLD

GOODLAND FORECAST AREA HOURLY WEATHER ROUNDUP
NATIONAL WEATHER SERVICE GOODLAND KS
600 AM MDT SUN MAY 29 2016

...OFFICIAL OBSERVATIONS...

CITY           SKY/WX    TMP DP  RH WIND       PRES   REMARKS
GOODLAND KS    CLEAR     49  46  90 SW3       30.12R
HILL CITY KS   CLOUDY    55  52  89 CALM      30.11R
IMPERIAL NEB   CLEAR     50  48  93 NW3       30.12R
MCCOOK NEB     CLEAR     53  48  83 N3        30.10R
AKRON CO       CLEAR     47  42  83 E5        30.16R
BURLINGTON CO  CLEAR     52  45  77 S12       30.14R
LIMON CO       CLEAR     40  39  97 CALM      30.19R
$$

...UNOFFICIAL OBSERVATIONS...

CITY           SKY/WX    TMP DP  RH WIND       PRES   REMARKS
GOVE KS          N/A     60  32  34 MISG        N/A
LENORA KS        N/A     58  32  37 MISG        N/A
SHARON SPRINGS   N/A     54  50  87 S10         N/A
TRIBUNE KS     CLEAR     54  48  82 CALM      30.16R
KIT CARSON CO    N/A     49  44  84 CALM        N/A
YUMA CO          N/A     48  43  84 CALM        N/A
$$




USA.gov is the U.S. government's official web portal to all federal, state and local government web resources and services.